SCP
0 0 0 0 0 0 0 0 0 0 0 0 0 0 0 0 0 0 0 0 0 0 0 0 0 0 0 0 0 0 0 0 0 0 0 0 0 0 0 0 0 0 0 0 0 0 0 0 0 0 0 0 0 0
0 0 0 0 0 0 0 0 0 0 0 0 0 0 0 0 0 0 0 0 0 0 0 0 0 0 0 0 0 0 0 0 0 0 0 0 0 0 0 0 0 0 0 0 0 0 0 0 0 0 0 0 0 0
0 0 0 0 0 0 0 0 0 0 0 0 0 0 0 0 0 0 0 0 0 0 0 0 0 0 0 0 0 0 0 0 0 0 0 0 0 0 0 0 0 0 0 0 0 0 0 0 0 0 0 0 0 0
0 0 0 0 0 0 0 0 0 0 0 0 0 0 0 0 0 0 0 0 0 0 0 0 0 0 0 0 0 0 0 0 0 0 0 0 0 0 0 0 0 0 0 0 0 0 0 0 0 0 0 0 0 -0
0 0 0 0 0 0 0 0 0 0 0 0 0 0 0 0 0 0 0 0 0 0 0 0 0 0 0 0 0 0 0 0 0 0 0 0 0 0 0 0 0 0 0 0 0 0 1 0 1 0 0 0 0 0
0 0 0 0 0 0 0 0 0 0 0 0 0 0 0 0 0 0 0 0 0 0 0 0 0 0 0 0 0 0 0 0 0 0 0 0 0 0 0 0 0 0 0 0 0 0 0 0 0 0 0 0 0 0
0 0 0 0 0 0 0 0 0 0 0 0 0 0 0 0 0 0 0 0 0 0 0 0 0 0 0 0 0 0 0 0 0 0 0 0 0 0 0 0 0 0 0 0 0 0 0 0 0 0 0 0 0 0
0 0 0 0 0 0 0 0 0 0 0 0 0 0 0 0 0 0 0 0 0 0 0 0 0 0 0 0 0 0 0 0 0 0 0 0 0 0 0 0 0 0 0 0 0 0 0 0 0 0 0 0 0 0
0 0 0 0 0 0 0 0 0 0 0 0 0 0 0 0 0 0 0 0 0 0 0 0 0 0 0 0 0 0 0 0 0 0 0 0 0 0 0 0 0 0 0 0 0 0 0 0 0 0 0 0 0 0
0 0 0 0 0 0 0 0 0 0 0 0 0 0 0 0 0 0 0 0 0 0 0 0 0 0 0 0 0 0 0 0 0 0 0 0 0 0 0 0 0 0 0 0 0 0 0 0 0 0 0 0 0 0
0 0 0 0 0 0 0 0 0 0 0 0 0 0 0 0 0 0 0 0 0 0 0 0 0 0 0 0 0 0 0 0 0 0 0 0 0 0 0 0 0 0 0 0 0 0 0 0 0 0 -0 0 0 0
0 0 0 0 0 0 0 0 0 0 0 0 0 0 0 0 0 0 0 0 0 0 0 0 0 0 0 0 0 0 0 0 0 0 0 0 0 0 0 0 0 0 0 0 0 0 0 0 0 0 0 0 0 0
0 0 0 0 0 0 0 0 0 0 0 0 0 0 0 0 0 0 0 0 0 0 0 0 0 0 0 0 0 0 0 0 0 0 0 0 0 0 0 0 0 0 0 0 0 0 0 0 0 0 0 0 0 0
0 0 0 0 0 0 0 0 0 0 0 0 0 0 0 0 0 0 0 0 0 0 0 0 0 0 0 0 0 0 0 0 0 0 0 0 0 0 0 0 0 0 0 0 0 0 0 0 0 0 0 0 0 0
0 0 0 0 0 0 0 0 0 0 0 0 0 0 0 0 0 0 0 0 0 0 0 0 0 0 0 0 0 0 0 0 0 0 0 0 0 0 0 0 0 0 0 0 0 0 0 0 0 0 0 0 0 0
0 0 0 0 0 0 0 0 0 0 0 0 0 0 0 0 0 0 0 0 0 0 0 0 0 0 0 0 0 0 0 0 0 0 0 0 0 0 0 -0 -0 0 0 0 0 0 0 0 0 0 0 0 0 0
0 0 0 0 0 0 0 0 0 0 0 0 0 0 0 0 0 0 0 0 0 0 0 0 0 0 0 0 0 0 0 0 0 0 0 0 0 0 0 0 0 0 0 0 0 0 0 0 0 0 0 0 0 0
0 0 0 0 0 0 0 0 0 0 0 -0 0 0 0 0 0 0 0 0 0 0 0 0 0 0 0 0 0 0 0 0 0 0 0 0 0 0 0 0 0 0 0 0 0 0 0 0 0 0 0 0 0 0
0 0 0 -0 0 0 0 0 0 0 0 0 0 0 0 0 0 0 0 0 0 0 0 0 0 0 0 0 0 0 0 0 0 0 0 0 0 0 0 0 0 0 0 0 0 0 0 0 0 0 0 0 0 0
0 0 0 0 0 0 0 0 0 0 0 0 0 0 0 0 0 0 0 0 0 0 0 0 0 0 0 0 0 0 0 0 0 0 0 0 0 0 -0 0 0 0 0 0 0 0 0 0 0 0 0 0 0 0
0 0 0 0 0 0 0 0 0 0 0 0 0 0 0 0 0 0 0 0 0 0 0 0 0 0 0 0 0 0 0 0 0 0 0 0 0 0 -0 -0 0 0 0 -0 -0 -0 0 0 0 0 0 0 0 0
0 0 0 0 0 0 0 0 0 0 0 0 0 0 0 0 0 0 0 0 0 0 0 0 0 0 0 0 0 0 0 0 0 0 0 0 0 0 0 0 0 0 0 -0 -0 -0 -0 0 0 0 -0 -0 -0 -0
0 0 0 0 0 0 0 0 0 0 0 0 0 0 0 0 0 0 0 0 0 0 0 0 0 0 0 0 0 0 0 0 0 0 0 0 0 0 -0 -0 -0 0 0 -0 -0 -0 0 0 -0 0 -0 -0 -0 0
0 0 0 0 -0 -0 0 0 0 0 -0 -0 -0 -0 -0 0 0 0 0 0 0 0 0 0 0 0 0 0 0 0 0 0 0 0 0 0 0 -0 -0 -0 -0 -0 -0 -0 0 0 0 -0 -0 -0 -0 -0 0 -0
0 -0 -0 -0 -0 0 0 0 0 -0 -0 -0 -0 0 -0 -0 0 -0 -0 -0 -0 -0 -0 0 0 0 0 0 0 0 0 0 0 0 0 0 0 0 -0 -0 -0 -0 0 0 0 0 0 -0 -0 -0 -0 0 -0 -0
-0 -0 -0 -0 -0 -0 0 0 0 -0 -0 0 -0 0 0 0 0 0 0 0 0 0 0 0 0 0 -0 -0 -0 -0 -0 -0 0 0 0 0 -0 0 0 0 0 -0 0 0 -0 0 0 0 0 -0 -0 -0 -0 0
0 0 0 0 0 0 0 -0 -0 0 0 0 0 0 0 0 0 0 0 0 0 -0 -0 -0 -0 -0 -0 -0 -0 0 -0 -0 -0 0 0 -0 -0 0 0 0 -0 -0 0 0 0 -0 -0 0 -0 -0 -0 0 0 0
0 0 0 0 0 0 -0 -0 -0 0 0 0 0 0 0 0 0 0 0 0 0 0 0 -0 -0 -0 -0 -0 0 -0 -0 -0 -0 -0 0 0 0 0 0 -0 0 -0 0 0 -0 0 0 0 0 -0 0 0 0 0
0 0 0 0 0 0 0 0 0 0 0 0 0 0 0 0 0 0 0 0 -0 -0 -0 -0 -0 0 0 0 0 0 -0 -0 -0 -0 0 0 0 0 0 -0 0 0 0 0 0 0 0 0 -0 -0 0 0 -0 -0
0 0 0 0 0 0 0 0 -0 -0 -0 0 0 0 0 0 0 0 0 0 0 0 -0 0 0 0 0 0 0 0 0 0 0 0 0 0 0 0 -0 -0 0 0 0 0 0 0 0 0 0 0 0 0 0 0
0 0 0 0 -0 0 0 0 0 -0 0 0 0 0 0 0 0 0 0 0 0 0 0 0 0 0 0 0 0 0 0 0 0 0 0 0 0 0 0 0 0 0 0 0 0 -0 -0 -0 -0 0 0 0 0 0
0 0 0 0 -0 -0 0 0 0 0 0 0 0 0 0 0 0 0 0 0 -0 0 0 0 0 0 0 0 0 0 0 0 0 0 0 0 0 0 0 0 0 0 0 0 0 0 -0 -0 0 0 0 0 0 0
0 0 0 0 -0 0 0 0 0 0 0 0 0 0 0 0 0 0 0 0 0 0 0 0 0 0 0 0 0 0 0 0 0 0 0 0 0 0 0 0 0 0 0 0 0 0 -0 -0 0 0 0 0 0 0
Wind_Speed_500mb
18 17 22 24 25 23 22 21 18 15 13 11 8 5 3 2 4 9 9 12 9 6 4 5 5 5 3 6 11 7 7 9 10 14 19 18 17 18 23 26 17 22 14 14 17 18 26 11 16 13 15 3 4 10
19 17 15 17 22 23 23 22 19 16 15 13 9 7 7 6 3 6 2 11 13 5 4 16 18 12 6 3 4 4 5 4 7 8 5 9 11 14 20 25 16 20 23 18 14 13 5 27 21 19 14 14 13 16
23 21 17 14 17 22 21 20 20 18 16 14 11 9 8 7 6 7 6 7 8 6 12 12 16 15 17 20 14 9 7 2 3 2 5 5 13 7 21 24 33 16 11 14 12 26 33 30 34 35 27 22 21 23
22 20 19 17 15 18 21 19 18 17 16 15 13 10 10 9 6 5 6 8 12 4 8 7 8 6 12 18 25 28 15 9 5 8 13 9 10 4 15 11 17 13 14 19 22 30 32 29 30 28 23 19 25 26
25 23 18 18 19 19 18 17 16 14 15 15 14 14 12 12 9 5 6 9 11 7 4 2 7 9 13 19 17 18 23 24 23 21 16 14 22 9 30 21 17 22 23 17 22 19 22 24 16 4 19 29 36 36
25 21 20 20 19 18 16 14 14 12 11 13 13 13 11 12 12 7 3 10 14 9 1 4 5 9 6 9 20 26 23 17 21 17 21 24 27 15 16 27 34 37 37 31 37 34 25 32 42 42 45 41 36 28
21 21 26 25 21 18 17 16 14 12 10 10 11 9 10 13 17 8 4 10 14 12 3 6 6 9 8 7 11 16 21 23 24 28 28 33 24 20 20 30 38 41 44 45 51 50 53 53 49 51 54 50 50 51
30 32 25 22 19 15 14 13 12 11 11 8 7 6 7 14 16 8 15 22 18 3 4 5 5 9 5 13 14 12 13 20 16 24 18 22 24 26 13 23 24 30 30 40 46 46 49 50 51 47 43 43 41 41
34 25 23 22 21 19 18 14 11 10 9 8 6 7 15 12 6 8 20 20 13 2 5 7 6 8 7 8 6 11 11 11 13 17 23 18 17 18 14 19 23 29 35 41 44 47 51 57 60 60 57 59 53 47
28 29 22 21 24 24 21 18 15 11 10 10 12 4 8 7 16 22 11 10 10 8 7 11 7 7 6 7 11 7 11 9 9 16 10 11 22 40 31 18 24 31 32 28 32 37 39 48 48 52 59 57 52 47
32 30 24 26 27 25 23 19 15 12 13 13 6 4 13 30 10 6 8 11 12 9 13 13 17 13 7 9 6 5 3 5 7 8 8 8 8 10 6 12 16 19 22 25 29 35 39 49 53 55 58 54 46 37
29 34 33 25 22 24 24 21 16 18 16 17 14 20 22 8 8 8 9 9 11 8 15 15 12 17 7 6 12 10 7 6 10 8 7 6 10 5 9 16 20 22 26 31 34 39 43 49 48 50 54 50 44 46
28 24 21 21 22 27 27 22 19 21 22 23 8 9 8 7 8 11 15 9 9 14 17 18 16 12 9 9 8 5 11 11 3 6 5 9 16 5 14 20 25 27 31 34 37 36 42 49 47 44 43 39 37 36
32 31 31 26 23 33 27 21 21 26 13 6 9 8 9 7 10 9 9 2 10 10 19 15 11 12 8 11 8 9 10 6 7 7 10 10 9 14 19 24 32 39 40 42 45 43 44 48 48 41 32 31 30 33
25 28 28 28 29 29 26 24 26 24 5 4 3 5 10 9 5 5 4 8 12 10 11 12 9 8 13 8 10 10 9 10 9 8 6 13 7 15 23 28 32 37 43 46 48 49 43 44 45 38 27 24 26 29
28 27 31 35 35 33 31 30 24 16 1 1 6 7 10 9 16 14 13 12 9 9 5 5 6 7 12 8 12 15 9 12 11 10 10 1 9 16 22 28 34 39 43 48 53 50 45 42 38 31 32 18 21 30
23 14 29 25 19 14 31 30 20 10 9 6 9 13 12 7 8 5 11 9 11 11 7 5 6 12 6 10 17 11 19 6 7 9 4 3 11 20 26 31 38 43 48 53 54 54 49 42 26 22 11 12 24 43
18 18 27 31 33 28 26 13 6 7 8 14 11 8 15 14 11 11 16 11 11 16 17 9 5 9 10 19 16 13 24 11 8 7 6 10 15 21 27 36 42 46 47 58 53 53 44 31 26 22 20 28 48 54
20 23 30 33 31 20 6 8 5 5 11 10 16 19 19 21 23 23 19 18 18 16 10 10 14 16 21 18 22 19 15 16 20 22 23 23 24 29 35 39 46 47 50 63 50 43 32 19 15 26 39 47 63 60
21 22 23 29 27 7 4 3 7 4 6 4 13 16 20 20 17 23 27 29 32 31 24 13 25 50 42 40 43 44 39 30 24 28 33 38 39 40 44 45 50 50 51 55 50 32 21 22 19 21 47 71 71 52
23 30 33 33 21 4 3 4 5 7 9 10 11 15 18 20 28 32 36 37 38 42 50 63 67 67 62 60 59 61 62 57 57 55 56 60 55 48 53 56 48 47 49 57 48 32 37 32 28 41 56 41 46 35
22 33 46 30 5 9 4 7 6 5 9 14 20 22 21 26 32 37 37 45 59 60 67 64 68 68 66 65 66 67 69 66 65 64 62 61 68 59 51 49 49 47 44 51 41 30 23 13 26 58 56 43 32 40
22 17 13 9 5 5 3 6 7 7 8 7 9 10 15 17 17 17 17 38 64 66 68 70 79 81 78 76 68 67 66 63 64 60 56 56 55 51 47 44 42 41 38 41 31 14 21 22 47 31 28 32 43 37
20 7 4 5 6 4 5 7 8 8 9 10 9 14 23 27 24 21 22 49 55 52 52 53 53 58 58 61 64 65 64 59 60 59 54 50 47 43 40 39 36 32 32 30 18 34 35 32 33 21 27 36 34 26
4 5 6 6 7 6 8 7 9 10 11 18 13 15 17 10 10 24 36 56 52 40 31 36 46 46 51 52 52 54 50 51 55 54 48 43 41 38 37 35 30 27 26 19 20 47 43 29 29 24 28 31 32 25
5 10 13 12 10 10 8 6 7 10 15 8 10 11 10 8 9 15 10 19 23 17 18 23 25 29 36 44 48 48 48 45 46 47 41 37 37 38 35 32 26 25 22 27 29 35 29 34 16 23 28 34 33 24
6 8 11 13 11 11 13 22 27 22 12 8 8 7 6 9 13 9 10 11 25 42 48 45 48 47 49 47 40 38 41 38 40 36 31 31 33 35 35 33 28 27 22 41 34 49 34 27 25 27 31 32 31 21
9 8 15 10 15 19 22 22 17 12 8 9 6 7 7 8 8 21 38 49 41 45 49 34 28 31 36 27 23 24 28 33 31 29 28 28 29 30 30 29 30 23 26 43 50 30 29 26 26 31 35 34 28 22
10 12 12 22 24 17 16 12 12 15 18 10 7 7 11 20 49 62 61 51 58 40 24 15 8 11 10 13 18 19 23 29 37 41 41 33 28 29 28 24 22 18 50 58 38 33 36 26 27 31 33 31 27 22
13 14 10 10 10 10 16 19 29 33 35 35 37 35 42 55 43 46 44 56 58 40 10 14 11 7 5 6 11 18 20 23 25 28 30 31 28 25 25 29 25 37 60 51 33 21 28 30 35 36 35 33 27 22
8 8 9 13 13 22 27 28 33 33 28 22 23 26 43 37 41 43 64 69 49 16 2 4 7 6 5 10 10 11 10 10 20 26 31 29 25 24 28 32 38 51 64 51 27 28 36 36 35 35 33 29 26 22
9 13 8 6 16 19 26 15 13 11 8 7 10 26 33 17 15 43 75 75 50 25 14 9 2 5 10 10 7 3 17 18 12 16 20 30 43 36 21 44 47 32 32 38 31 33 35 34 34 33 31 29 26 23
7 10 11 11 11 9 10 12 7 7 6 9 8 20 34 26 15 35 72 75 60 46 24 8 6 13 19 18 27 38 35 46 46 41 46 55 56 54 50 46 40 33 28 30 34 36 35 35 33 30 27 26 24 22
Wind_Direction_500mb
236 239 224 217 213 211 216 217 215 225 229 230 234 232 240 198 192 197 209 196 171 226 178 187 205 203 172 224 250 72 230 194 224 239 242 242 249 234 239 248 230 222 220 229 254 265 262 147 152 227 275 237 277 265
218 229 227 230 218 211 211 216 216 217 225 230 225 223 230 239 205 173 214 216 205 206 256 224 223 215 187 207 268 237 8 32 9 263 254 288 240 247 253 253 191 247 250 269 217 253 80 187 234 239 238 276 290 282
215 213 219 240 219 201 207 212 214 218 222 225 224 209 216 225 224 207 196 223 199 243 251 242 236 224 234 237 222 255 210 207 182 143 325 308 256 295 253 243 261 232 225 239 231 243 255 253 260 259 240 264 280 274
198 202 215 229 226 215 211 220 216 219 226 230 228 213 209 218 219 207 172 194 184 208 264 162 220 196 227 239 235 229 245 238 211 276 264 262 264 177 263 287 265 289 172 242 243 261 271 260 267 263 245 264 279 280
200 205 218 213 212 221 220 212 207 219 226 234 236 227 203 209 205 197 200 205 194 163 339 129 277 239 243 218 205 205 216 227 241 248 237 246 258 282 250 263 259 231 262 236 258 343 333 297 11 298 288 297 302 298
214 217 206 203 204 212 211 210 210 215 213 216 225 233 208 197 188 149 232 256 215 191 335 241 252 194 199 210 215 218 216 220 227 232 247 250 244 258 261 258 258 265 253 262 286 295 289 289 297 294 295 298 300 291
188 203 198 203 209 209 205 202 201 202 209 204 201 204 184 183 175 176 206 185 168 159 270 252 200 195 216 213 197 206 210 219 229 238 242 253 237 219 266 266 272 271 269 266 270 278 281 281 280 283 283 282 278 277
198 188 180 184 188 197 200 188 187 192 203 200 196 200 164 157 157 147 154 131 125 145 248 259 179 192 195 184 174 186 192 204 223 239 241 246 245 236 262 270 272 276 274 274 273 275 278 281 283 280 280 285 279 273
193 193 191 208 212 208 196 190 186 187 191 182 163 138 122 140 140 195 170 153 166 154 269 248 224 147 184 201 202 182 209 221 206 232 232 232 227 224 254 290 292 296 290 291 285 286 285 282 280 277 273 274 270 270
187 191 201 203 199 201 198 201 197 197 184 161 144 125 158 158 135 128 125 163 195 229 248 259 216 180 223 193 174 214 197 246 240 215 214 237 247 255 264 302 300 297 294 293 292 294 299 297 290 281 271 266 259 262
194 188 191 199 197 194 194 185 190 189 173 154 142 144 148 138 125 150 174 190 182 212 216 238 244 239 177 238 226 234 263 222 250 146 220 236 223 104 332 327 324 314 314 305 302 301 303 300 291 281 276 266 259 249
197 193 187 180 182 182 177 176 182 183 174 165 143 130 143 182 188 173 195 183 214 218 176 207 197 197 181 189 217 201 242 219 251 123 239 253 110 105 344 337 332 328 326 320 305 302 309 314 301 289 274 264 251 243
173 173 162 169 183 178 174 172 174 165 148 137 141 165 179 177 197 202 188 196 202 178 170 182 168 162 161 198 209 226 224 229 91 211 238 260 115 360 344 341 337 337 333 327 319 307 312 322 317 301 279 260 251 235
183 185 169 163 170 172 168 165 161 158 145 150 166 182 219 179 233 193 233 94 101 153 161 171 165 180 158 191 222 222 216 260 216 222 225 175 69 340 349 346 344 340 340 332 323 315 313 324 325 316 284 259 238 216
173 154 155 158 161 167 163 152 155 166 144 151 148 214 221 237 239 181 162 181 158 152 169 176 195 222 169 230 207 240 207 226 209 223 199 73 350 342 345 341 339 335 332 329 322 315 308 315 320 324 299 264 226 208
169 166 169 169 172 177 178 156 156 165 94 269 228 244 232 246 223 214 206 200 174 175 177 208 233 209 216 221 210 217 223 202 205 174 113 7 349 343 338 337 338 332 327 325 320 315 304 305 312 304 307 261 209 191
143 140 149 153 169 171 152 146 141 174 201 232 243 235 236 275 269 167 188 166 174 195 211 206 253 208 290 227 217 233 232 290 129 157 200 1 352 348 344 339 339 335 331 329 322 316 307 298 290 295 278 196 169 166
163 168 170 170 176 168 156 157 152 188 235 231 240 226 221 237 239 212 194 201 199 204 210 233 241 225 237 233 218 222 231 220 201 225 275 305 315 323 332 336 337 335 330 332 327 321 319 301 261 239 206 169 173 162
152 158 166 174 172 166 124 172 180 251 244 255 254 255 251 248 241 237 229 215 214 217 218 220 238 232 229 241 271 265 238 239 264 271 279 289 303 307 315 324 330 330 328 338 334 325 315 297 251 222 206 182 163 154
161 162 165 174 171 155 135 179 202 256 264 285 266 260 243 248 243 236 235 228 222 219 220 228 239 239 238 242 241 250 263 273 274 283 290 291 290 295 304 312 320 320 323 330 337 321 305 298 252 206 187 167 160 156
161 161 166 176 182 176 196 196 225 252 282 254 273 269 257 247 243 239 236 229 221 223 232 236 246 253 255 255 254 255 261 266 271 276 279 286 290 292 294 303 308 310 315 330 331 311 310 290 254 192 162 156 156 166
147 178 167 173 134 195 239 231 249 275 255 265 274 253 264 261 253 247 241 234 226 235 240 247 249 252 253 252 252 253 256 261 265 267 267 270 275 281 285 289 300 301 309 324 323 308 313 229 185 165 171 164 171 168
141 137 135 155 164 183 213 220 248 238 257 243 257 256 248 246 252 259 240 239 245 247 252 252 252 254 252 255 255 255 254 256 259 259 260 261 262 269 273 281 287 292 303 312 315 287 153 170 165 161 170 165 169 167
145 126 137 174 193 221 220 229 228 258 260 250 238 260 265 262 258 239 257 260 262 262 258 257 260 259 255 251 248 246 246 245 248 248 247 247 251 255 263 273 276 280 289 300 274 173 164 185 186 176 170 172 167 164
143 167 175 193 203 222 231 228 215 231 249 255 257 274 270 260 247 259 269 277 278 273 273 269 255 250 248 251 248 244 243 237 237 240 238 236 244 253 259 261 264 271 269 279 204 189 187 193 205 191 183 177 173 174
232 197 191 201 197 212 224 261 245 254 286 284 254 270 284 261 245 252 257 279 290 305 299 297 298 283 266 254 250 246 239 233 231 234 234 231 234 239 244 248 254 251 229 219 170 177 190 202 207 198 180 185 184 179
258 218 212 227 249 247 260 264 269 279 293 253 249 260 248 245 242 251 269 261 293 300 293 283 274 267 269 269 255 247 233 226 223 225 225 227 224 228 236 246 249 242 240 213 201 178 182 185 197 195 187 184 180 173
247 260 242 234 230 248 269 288 283 265 248 243 263 238 252 249 272 309 305 326 312 311 303 286 255 248 260 260 238 225 210 208 211 210 209 216 222 228 237 243 239 246 221 185 174 180 188 197 200 190 183 177 174 174
236 237 251 264 261 259 254 230 249 242 260 231 244 258 261 270 291 315 320 310 319 320 291 258 269 275 264 217 211 205 195 190 190 198 206 215 222 231 228 217 195 192 167 168 180 190 202 204 184 175 171 173 175 175
253 222 246 277 264 241 238 239 270 286 289 280 276 278 287 302 321 330 329 343 353 351 254 229 252 270 257 189 180 180 185 190 200 210 214 217 220 216 209 206 194 177 187 190 199 203 176 164 167 164 169 172 171 163
256 211 247 252 266 269 280 285 287 290 287 286 309 311 308 315 315 343 2 10 18 45 70 213 207 199 211 186 181 170 158 201 214 220 221 215 201 194 187 194 159 170 186 192 206 174 159 155 159 161 164 163 164 160
214 217 261 277 279 298 304 287 288 284 306 303 347 344 333 305 314 347 11 22 34 51 51 64 45 160 160 162 135 141 140 112 95 125 147 165 170 162 152 143 154 172 170 155 157 158 155 157 156 157 160 161 158 160
243 245 247 267 275 280 322 306 289 318 328 355 31 2 359 338 336 349 10 13 16 23 44 60 123 127 122 108 115 109 95 109 102 98 105 114 121 126 130 134 138 148 160 151 148 149 149 148 149 150 153 157 162 165
Wind_Speed_850mb
18 17 22 24 25 23 22 21 18 15 13 11 8 5 3 2 4 9 9 12 9 6 4 5 5 5 3 6 11 7 7 9 10 14 19 18 17 18 23 26 17 22 14 14 17 18 26 11 16 13 15 3 4 10
19 17 15 17 22 23 23 22 19 16 15 13 9 7 7 6 3 6 2 11 13 5 4 16 18 12 6 3 4 4 5 4 7 8 5 9 11 14 20 25 16 20 23 18 14 13 5 27 21 19 14 14 13 16
23 21 17 14 17 22 21 20 20 18 16 14 11 9 8 7 6 7 6 7 8 6 12 12 16 15 17 20 14 9 7 2 3 2 5 5 13 7 21 24 33 16 11 14 12 26 33 30 34 35 27 22 21 23
22 20 19 17 15 18 21 19 18 17 16 15 13 10 10 9 6 5 6 8 12 4 8 7 8 6 12 18 25 28 15 9 5 8 13 9 10 4 15 11 17 13 14 19 22 30 32 29 30 28 23 19 25 26
25 23 18 18 19 19 18 17 16 14 15 15 14 14 12 12 9 5 6 9 11 7 4 2 7 9 13 19 17 18 23 24 23 21 16 14 22 9 30 21 17 22 23 17 22 19 22 24 16 4 19 29 36 36
25 21 20 20 19 18 16 14 14 12 11 13 13 13 11 12 12 7 3 10 14 9 1 4 5 9 6 9 20 26 23 17 21 17 21 24 27 15 16 27 34 37 37 31 37 34 25 32 42 42 45 41 36 28
21 21 26 25 21 18 17 16 14 12 10 10 11 9 10 13 17 8 4 10 14 12 3 6 6 9 8 7 11 16 21 23 24 28 28 33 24 20 20 30 38 41 44 45 51 50 53 53 49 51 54 50 50 51
30 32 25 22 19 15 14 13 12 11 11 8 7 6 7 14 16 8 15 22 18 3 4 5 5 9 5 13 14 12 13 20 16 24 18 22 24 26 13 23 24 30 30 40 46 46 49 50 51 47 43 43 41 41
34 25 23 22 21 19 18 14 11 10 9 8 6 7 15 12 6 8 20 20 13 2 5 7 6 8 7 8 6 11 11 11 13 17 23 18 17 18 14 19 23 29 35 41 44 47 51 57 60 60 57 59 53 47
28 29 22 21 24 24 21 18 15 11 10 10 12 4 8 7 16 22 11 10 10 8 7 11 7 7 6 7 11 7 11 9 9 16 10 11 22 40 31 18 24 31 32 28 32 37 39 48 48 52 59 57 52 47
32 30 24 26 27 25 23 19 15 12 13 13 6 4 13 30 10 6 8 11 12 9 13 13 17 13 7 9 6 5 3 5 7 8 8 8 8 10 6 12 16 19 22 25 29 35 39 49 53 55 58 54 46 37
29 34 33 25 22 24 24 21 16 18 16 17 14 20 22 8 8 8 9 9 11 8 15 15 12 17 7 6 12 10 7 6 10 8 7 6 10 5 9 16 20 22 26 31 34 39 43 49 48 50 54 50 44 46
28 24 21 21 22 27 27 22 19 21 22 23 8 9 8 7 8 11 15 9 9 14 17 18 16 12 9 9 8 5 11 11 3 6 5 9 16 5 14 20 25 27 31 34 37 36 42 49 47 44 43 39 37 36
32 31 31 26 23 33 27 21 21 26 13 6 9 8 9 7 10 9 9 2 10 10 19 15 11 12 8 11 8 9 10 6 7 7 10 10 9 14 19 24 32 39 40 42 45 43 44 48 48 41 32 31 30 33
25 28 28 28 29 29 26 24 26 24 5 4 3 5 10 9 5 5 4 8 12 10 11 12 9 8 13 8 10 10 9 10 9 8 6 13 7 15 23 28 32 37 43 46 48 49 43 44 45 38 27 24 26 29
28 27 31 35 35 33 31 30 24 16 1 1 6 7 10 9 16 14 13 12 9 9 5 5 6 7 12 8 12 15 9 12 11 10 10 1 9 16 22 28 34 39 43 48 53 50 45 42 38 31 32 18 21 30
23 14 29 25 19 14 31 30 20 10 9 6 9 13 12 7 8 5 11 9 11 11 7 5 6 12 6 10 17 11 19 6 7 9 4 3 11 20 26 31 38 43 48 53 54 54 49 42 26 22 11 12 24 43
18 18 27 31 33 28 26 13 6 7 8 14 11 8 15 14 11 11 16 11 11 16 17 9 5 9 10 19 16 13 24 11 8 7 6 10 15 21 27 36 42 46 47 58 53 53 44 31 26 22 20 28 48 54
20 23 30 33 31 20 6 8 5 5 11 10 16 19 19 21 23 23 19 18 18 16 10 10 14 16 21 18 22 19 15 16 20 22 23 23 24 29 35 39 46 47 50 63 50 43 32 19 15 26 39 47 63 60
21 22 23 29 27 7 4 3 7 4 6 4 13 16 20 20 17 23 27 29 32 31 24 13 25 50 42 40 43 44 39 30 24 28 33 38 39 40 44 45 50 50 51 55 50 32 21 22 19 21 47 71 71 52
23 30 33 33 21 4 3 4 5 7 9 10 11 15 18 20 28 32 36 37 38 42 50 63 67 67 62 60 59 61 62 57 57 55 56 60 55 48 53 56 48 47 49 57 48 32 37 32 28 41 56 41 46 35
22 33 46 30 5 9 4 7 6 5 9 14 20 22 21 26 32 37 37 45 59 60 67 64 68 68 66 65 66 67 69 66 65 64 62 61 68 59 51 49 49 47 44 51 41 30 23 13 26 58 56 43 32 40
22 17 13 9 5 5 3 6 7 7 8 7 9 10 15 17 17 17 17 38 64 66 68 70 79 81 78 76 68 67 66 63 64 60 56 56 55 51 47 44 42 41 38 41 31 14 21 22 47 31 28 32 43 37
20 7 4 5 6 4 5 7 8 8 9 10 9 14 23 27 24 21 22 49 55 52 52 53 53 58 58 61 64 65 64 59 60 59 54 50 47 43 40 39 36 32 32 30 18 34 35 32 33 21 27 36 34 26
4 5 6 6 7 6 8 7 9 10 11 18 13 15 17 10 10 24 36 56 52 40 31 36 46 46 51 52 52 54 50 51 55 54 48 43 41 38 37 35 30 27 26 19 20 47 43 29 29 24 28 31 32 25
5 10 13 12 10 10 8 6 7 10 15 8 10 11 10 8 9 15 10 19 23 17 18 23 25 29 36 44 48 48 48 45 46 47 41 37 37 38 35 32 26 25 22 27 29 35 29 34 16 23 28 34 33 24
6 8 11 13 11 11 13 22 27 22 12 8 8 7 6 9 13 9 10 11 25 42 48 45 48 47 49 47 40 38 41 38 40 36 31 31 33 35 35 33 28 27 22 41 34 49 34 27 25 27 31 32 31 21
9 8 15 10 15 19 22 22 17 12 8 9 6 7 7 8 8 21 38 49 41 45 49 34 28 31 36 27 23 24 28 33 31 29 28 28 29 30 30 29 30 23 26 43 50 30 29 26 26 31 35 34 28 22
10 12 12 22 24 17 16 12 12 15 18 10 7 7 11 20 49 62 61 51 58 40 24 15 8 11 10 13 18 19 23 29 37 41 41 33 28 29 28 24 22 18 50 58 38 33 36 26 27 31 33 31 27 22
13 14 10 10 10 10 16 19 29 33 35 35 37 35 42 55 43 46 44 56 58 40 10 14 11 7 5 6 11 18 20 23 25 28 30 31 28 25 25 29 25 37 60 51 33 21 28 30 35 36 35 33 27 22
8 8 9 13 13 22 27 28 33 33 28 22 23 26 43 37 41 43 64 69 49 16 2 4 7 6 5 10 10 11 10 10 20 26 31 29 25 24 28 32 38 51 64 51 27 28 36 36 35 35 33 29 26 22
9 13 8 6 16 19 26 15 13 11 8 7 10 26 33 17 15 43 75 75 50 25 14 9 2 5 10 10 7 3 17 18 12 16 20 30 43 36 21 44 47 32 32 38 31 33 35 34 34 33 31 29 26 23
7 10 11 11 11 9 10 12 7 7 6 9 8 20 34 26 15 35 72 75 60 46 24 8 6 13 19 18 27 38 35 46 46 41 46 55 56 54 50 46 40 33 28 30 34 36 35 35 33 30 27 26 24 22
Wind_Direction_850mb
236 239 224 217 213 211 216 217 215 225 229 230 234 232 240 198 192 197 209 196 171 226 178 187 205 203 172 224 250 72 230 194 224 239 242 242 249 234 239 248 230 222 220 229 254 265 262 147 152 227 275 237 277 265
218 229 227 230 218 211 211 216 216 217 225 230 225 223 230 239 205 173 214 216 205 206 256 224 223 215 187 207 268 237 8 32 9 263 254 288 240 247 253 253 191 247 250 269 217 253 80 187 234 239 238 276 290 282
215 213 219 240 219 201 207 212 214 218 222 225 224 209 216 225 224 207 196 223 199 243 251 242 236 224 234 237 222 255 210 207 182 143 325 308 256 295 253 243 261 232 225 239 231 243 255 253 260 259 240 264 280 274
198 202 215 229 226 215 211 220 216 219 226 230 228 213 209 218 219 207 172 194 184 208 264 162 220 196 227 239 235 229 245 238 211 276 264 262 264 177 263 287 265 289 172 242 243 261 271 260 267 263 245 264 279 280
200 205 218 213 212 221 220 212 207 219 226 234 236 227 203 209 205 197 200 205 194 163 339 129 277 239 243 218 205 205 216 227 241 248 237 246 258 282 250 263 259 231 262 236 258 343 333 297 11 298 288 297 302 298
214 217 206 203 204 212 211 210 210 215 213 216 225 233 208 197 188 149 232 256 215 191 335 241 252 194 199 210 215 218 216 220 227 232 247 250 244 258 261 258 258 265 253 262 286 295 289 289 297 294 295 298 300 291
188 203 198 203 209 209 205 202 201 202 209 204 201 204 184 183 175 176 206 185 168 159 270 252 200 195 216 213 197 206 210 219 229 238 242 253 237 219 266 266 272 271 269 266 270 278 281 281 280 283 283 282 278 277
198 188 180 184 188 197 200 188 187 192 203 200 196 200 164 157 157 147 154 131 125 145 248 259 179 192 195 184 174 186 192 204 223 239 241 246 245 236 262 270 272 276 274 274 273 275 278 281 283 280 280 285 279 273
193 193 191 208 212 208 196 190 186 187 191 182 163 138 122 140 140 195 170 153 166 154 269 248 224 147 184 201 202 182 209 221 206 232 232 232 227 224 254 290 292 296 290 291 285 286 285 282 280 277 273 274 270 270
187 191 201 203 199 201 198 201 197 197 184 161 144 125 158 158 135 128 125 163 195 229 248 259 216 180 223 193 174 214 197 246 240 215 214 237 247 255 264 302 300 297 294 293 292 294 299 297 290 281 271 266 259 262
194 188 191 199 197 194 194 185 190 189 173 154 142 144 148 138 125 150 174 190 182 212 216 238 244 239 177 238 226 234 263 222 250 146 220 236 223 104 332 327 324 314 314 305 302 301 303 300 291 281 276 266 259 249
197 193 187 180 182 182 177 176 182 183 174 165 143 130 143 182 188 173 195 183 214 218 176 207 197 197 181 189 217 201 242 219 251 123 239 253 110 105 344 337 332 328 326 320 305 302 309 314 301 289 274 264 251 243
173 173 162 169 183 178 174 172 174 165 148 137 141 165 179 177 197 202 188 196 202 178 170 182 168 162 161 198 209 226 224 229 91 211 238 260 115 360 344 341 337 337 333 327 319 307 312 322 317 301 279 260 251 235
183 185 169 163 170 172 168 165 161 158 145 150 166 182 219 179 233 193 233 94 101 153 161 171 165 180 158 191 222 222 216 260 216 222 225 175 69 340 349 346 344 340 340 332 323 315 313 324 325 316 284 259 238 216
173 154 155 158 161 167 163 152 155 166 144 151 148 214 221 237 239 181 162 181 158 152 169 176 195 222 169 230 207 240 207 226 209 223 199 73 350 342 345 341 339 335 332 329 322 315 308 315 320 324 299 264 226 208
169 166 169 169 172 177 178 156 156 165 94 269 228 244 232 246 223 214 206 200 174 175 177 208 233 209 216 221 210 217 223 202 205 174 113 7 349 343 338 337 338 332 327 325 320 315 304 305 312 304 307 261 209 191
143 140 149 153 169 171 152 146 141 174 201 232 243 235 236 275 269 167 188 166 174 195 211 206 253 208 290 227 217 233 232 290 129 157 200 1 352 348 344 339 339 335 331 329 322 316 307 298 290 295 278 196 169 166
163 168 170 170 176 168 156 157 152 188 235 231 240 226 221 237 239 212 194 201 199 204 210 233 241 225 237 233 218 222 231 220 201 225 275 305 315 323 332 336 337 335 330 332 327 321 319 301 261 239 206 169 173 162
152 158 166 174 172 166 124 172 180 251 244 255 254 255 251 248 241 237 229 215 214 217 218 220 238 232 229 241 271 265 238 239 264 271 279 289 303 307 315 324 330 330 328 338 334 325 315 297 251 222 206 182 163 154
161 162 165 174 171 155 135 179 202 256 264 285 266 260 243 248 243 236 235 228 222 219 220 228 239 239 238 242 241 250 263 273 274 283 290 291 290 295 304 312 320 320 323 330 337 321 305 298 252 206 187 167 160 156
161 161 166 176 182 176 196 196 225 252 282 254 273 269 257 247 243 239 236 229 221 223 232 236 246 253 255 255 254 255 261 266 271 276 279 286 290 292 294 303 308 310 315 330 331 311 310 290 254 192 162 156 156 166
147 178 167 173 134 195 239 231 249 275 255 265 274 253 264 261 253 247 241 234 226 235 240 247 249 252 253 252 252 253 256 261 265 267 267 270 275 281 285 289 300 301 309 324 323 308 313 229 185 165 171 164 171 168
141 137 135 155 164 183 213 220 248 238 257 243 257 256 248 246 252 259 240 239 245 247 252 252 252 254 252 255 255 255 254 256 259 259 260 261 262 269 273 281 287 292 303 312 315 287 153 170 165 161 170 165 169 167
145 126 137 174 193 221 220 229 228 258 260 250 238 260 265 262 258 239 257 260 262 262 258 257 260 259 255 251 248 246 246 245 248 248 247 247 251 255 263 273 276 280 289 300 274 173 164 185 186 176 170 172 167 164
143 167 175 193 203 222 231 228 215 231 249 255 257 274 270 260 247 259 269 277 278 273 273 269 255 250 248 251 248 244 243 237 237 240 238 236 244 253 259 261 264 271 269 279 204 189 187 193 205 191 183 177 173 174
232 197 191 201 197 212 224 261 245 254 286 284 254 270 284 261 245 252 257 279 290 305 299 297 298 283 266 254 250 246 239 233 231 234 234 231 234 239 244 248 254 251 229 219 170 177 190 202 207 198 180 185 184 179
258 218 212 227 249 247 260 264 269 279 293 253 249 260 248 245 242 251 269 261 293 300 293 283 274 267 269 269 255 247 233 226 223 225 225 227 224 228 236 246 249 242 240 213 201 178 182 185 197 195 187 184 180 173
247 260 242 234 230 248 269 288 283 265 248 243 263 238 252 249 272 309 305 326 312 311 303 286 255 248 260 260 238 225 210 208 211 210 209 216 222 228 237 243 239 246 221 185 174 180 188 197 200 190 183 177 174 174
236 237 251 264 261 259 254 230 249 242 260 231 244 258 261 270 291 315 320 310 319 320 291 258 269 275 264 217 211 205 195 190 190 198 206 215 222 231 228 217 195 192 167 168 180 190 202 204 184 175 171 173 175 175
253 222 246 277 264 241 238 239 270 286 289 280 276 278 287 302 321 330 329 343 353 351 254 229 252 270 257 189 180 180 185 190 200 210 214 217 220 216 209 206 194 177 187 190 199 203 176 164 167 164 169 172 171 163
256 211 247 252 266 269 280 285 287 290 287 286 309 311 308 315 315 343 2 10 18 45 70 213 207 199 211 186 181 170 158 201 214 220 221 215 201 194 187 194 159 170 186 192 206 174 159 155 159 161 164 163 164 160
214 217 261 277 279 298 304 287 288 284 306 303 347 344 333 305 314 347 11 22 34 51 51 64 45 160 160 162 135 141 140 112 95 125 147 165 170 162 152 143 154 172 170 155 157 158 155 157 156 157 160 161 158 160
243 245 247 267 275 280 322 306 289 318 328 355 31 2 359 338 336 349 10 13 16 23 44 60 123 127 122 108 115 109 95 109 102 98 105 114 121 126 130 134 138 148 160 151 148 149 149 148 149 150 153 157 162 165